Location: Czu?�w
(50.1404°N, 18.9919°E)
Time: 14:00:18
(UTC+00:00)

CZ-4C R/B - Pass Details

Date: 27 October 2020
Orbit: 624 x 1378 km, 63.4° (Epoch: 28 November)

Event Time Altitude Azimuth Distance (km) Brightness Sun altitude
Rises 19:22:08 0° 316° (NW) 3,748 6.4 -37.2°
Reaches altitude 10° 19:24:34 10° 316° (NW) 2,897 5.6 -37.5°
Enters shadow 19:29:36 53° 317° (NW) 1,407 3.4 -38.3°
